Regional Weather Roundup
Issued by NWS

Home | Current Version | Previous Version | Text Only | Print | Product List | Glossary Off
Versions: 1 2 3 4 5 6 7 8 9 10 11 12 13 14 15 16 17 18 19 20 21 22 23 24 25 26 27 28 29 30 31 32 33 34 35 36 37 38 39 40 41 42 43 44 45 46 47 48 49 50

686
ASUS43 KDTX 221010
RWRMI
MICHIGAN HOURLY REGIONAL WEATHER ROUNDUP
NATIONAL WEATHER SERVICE DETROIT/PONTIAC MI
ISSUED BY NATIONAL WEATHER SERVICE GRAND RAPIDS MI
500 AM EST WED FEB 22 2017

NOTE: "FAIR" INDICATES FEW OR NO CLOUDS BELOW 12,000 FEET WITH NO
SIGNIFICANT WEATHER AND/OR OBSTRUCTION TO VISIBILITY.

MIZ047>049-052>055-059>063-066>070-074>076-081>083-221100-
SOUTHEAST LOWER MICHIGAN

CITY           SKY/WX    TMP DP  RH WIND       PRES   REMARKS
ADRIAN         FOG       42  42 100 W3        29.88S VSB 1/2
ALMA           DRZL/FOG  44  43  97 SW6       29.83S VSB 1/4
ANN ARBOR      CLOUDY    41  41 100 CALM      29.87S FOG
BAD AXE        FOG       39  39 100 S5        29.84S VSB<1/4
DETROIT CITY   CLEAR     45  45 100 CALM      29.88S FOG
DETROIT        CLOUDY    45  44  97 CALM      29.88S FOG
FLINT          FOG       42  40  92 S3        29.85R VSB 1/2
GROSSE ILE     FOG       43  42  99 S3        29.88S VSB 1
HILLSDALE      CLOUDY    50  46  87 SW6       29.87R FOG
HOWELL         FOG       40  39  97 S3        29.85S VSB 1/4

CITY           SKY/WX    TMP DP  RH WIND       PRES   REMARKS
JACKSON        LGT RAIN  45  43  93 SW6       29.86S
LANSING        CLEAR     46  43  89 S3        29.84F FOG
MASON          FOG       41  41 100 CALM      29.85S VSB 1/2
MONROE         CLOUDY    40  40 100 CALM      29.87S FOG
MT. CLEMENS    CLOUDY    40  40 100 CALM      29.85S FOG
PONTIAC        FOG       37  35  92 CALM      29.84F VSB 1/4
PORT HOPE        N/A     42  42 100 VRB3      29.82R
PORT HURON     CLOUDY    45  45 100 S6        29.87S FOG
TRI CITIES     FOG       43  43 100 S9        29.83S VSB 1/4
YPSILANTI      CLOUDY    45  45 100 SW3       29.88R FOG
$$
MIZ043>046-050>051-056>058-064>065-071>073-077>080-221100-
SOUTHWEST LOWER MICHIGAN

CITY           SKY/WX    TMP DP  RH WIND       PRES   REMARKS
BATTLE CREEK   PTCLDY    47  46  97 S6        29.85F FOG
BENTON HARBOR  MOCLDY    50  48  93 S5        29.84S FOG
BIG RAPIDS     FOG       46  45  97 SE5       29.80S VSB 1/4
COLDWATER      CLOUDY    50  49  97 SW5       29.86F
HOLLAND        CLOUDY    50  49  96 S6        29.84R FOG
GRAND RAPIDS   PTCLDY    46  44  93 S7        29.83R FOG
KALAMAZOO      CLEAR     46  44  93 S8        29.85S FOG
MARSHALL       CLOUDY    47  47  98 S5        29.85F FOG
MOUNT PLEASANT FOG       43  42  97 CALM      29.81S VSB 1/4
MUSKEGON       CLOUDY    51  51 100 SW8       29.82R FOG
STURGIS        CLOUDY    47  46  97 S5        29.86S FOG
$$
MIZ016>042-221100-
NORTHERN LOWER MICHIGAN

CITY           SKY/WX    TMP DP  RH WIND       PRES   REMARKS
ALPENA         CLOUDY    39  39 100 CALM      29.80R
BEAVER ISLAND  CLOUDY    46  39  76 S9        29.72F
BELLAIRE       PTCLDY    36  34  93 CALM      29.77S
CADILLAC       SNOW      42  41  97 SW8       29.78F VSB 1/4
CHARLEVOIX     MOCLDY    42  35  76 SE5       29.78F
GAYLORD        CLOUDY    41  33  73 S5        29.76F
HOUGHTON LAKE  FOG       42  41  96 SW5       29.81R VSB 1/4
MANISTEE       FOG       46  45  96 E5        29.77F VSB 1/4
OSCODA         SNOW      41  40  97 SW6       29.80S VSB<1/4
PELLSTON       CLOUDY    35  31  85 E3        29.76S
TRAVERSE CITY  CLOUDY    48  42  80 S3        29.75F
LUDINGTON      PTCLDY    52  51  94 SW10      29.77F FOG
$$
MIZ007>008-015-221100-
EASTERN UPPER MICHIGAN

CITY           SKY/WX    TMP DP  RH WIND       PRES   REMARKS
KINROSS        CLOUDY    34  33  96 E12       29.72F WCI  25
MACKINAC ISLAN MOCLDY    34  34 100 SE10      29.73F WCI  26
NEWBERRY       CLOUDY    38  37  97 S9        29.69F WCI  31
S. S. MARIE    LGT RAIN  35  34  96 E9        29.72F VSB 1/4 WCI  28
$$
MIZ004>006-011>014-085-221100-
CENTRAL UPPER MICHIGAN

CITY           SKY/WX    TMP DP  RH WIND       PRES   REMARKS
MANISTIQUE     FOG       37  36  97 SW9       29.70S VSB 1/4 WCI  30
ESCANABA       PTCLDY    36  34  92 CALM      29.70F
MENOMINEE      CLOUDY    42  35  76 SW3       29.70F
SAWYER-GWINN   MOCLDY    38  37  96 S6        29.66F WCI  34
$$
MIZ001>003-009>011-084-221100-
WESTERN UPPER MICHIGAN

CITY           SKY/WX    TMP DP  RH WIND       PRES   REMARKS
IRON MOUNTAIN  CLOUDY    33  29  85 SE3       29.64F
HOUGHTON       MOCLDY    38  30  73 S5        29.60F WCI  34
COPPER HARBOR    N/A     42  33  70 SW6       29.61F
IRONWOOD       CLEAR     44  37  76 S8        29.63R
$$

ABBREVIATIONS USED IN REMARKS
   TC - TEMPERATURE IN CELSIUS
  WCI - WIND CHILL INDEX
   HX - HEAT INDEX
  VSB - VISIBILITY





USA.gov is the U.S. government's official web portal to all federal, state and local government web resources and services.